Location: Amsterdam
(30.7274°N, 84.4357°W)
Time: 19:35:47
(UTC+00:00)

Altair - Pass Details

Date: 12 August 2024
Orbit: 1501 x 1682 km, 47.2° (Epoch: 07 September)

Event Time Altitude Azimuth Distance (km) Brightness Sun altitude
Rises 21:52:01 0° 306° (NW) 4,790 10.8 31.0°
Reaches altitude 10° 21:55:31 10° 315° (NW) 3,777 10.3 30.2°
Maximum altitude 22:04:13 38° 21° (NNE) 2,189 8.4 28.4°
Drops below altitude 10° 22:12:39 10° 87° (E) 3,665 9.0 26.6°
Sets 22:15:59 0° 95° (E) 4,635 9.4 25.8°
